Temperature
4 5 5 5 5 6 6 6 6 6 6 6 6 7 7 7 7 7 7 8 8 8 8 8 8 8 8 8 9 9 9 9 9 9 9 10 10 10 10 10 9 9 9
3 4 4 4 4 4 5 5 5 5 5 5 6 6 6 6 6 6 7 7 7 7 7 7 8 8 8 8 8 8 8 8 8 8 8 9 9 9 9 9 9 9 8
3 3 3 3 4 4 4 4 4 4 4 4 5 5 5 5 5 6 6 6 6 6 6 7 7 7 7 7 7 7 7 7 7 7 8 8 8 9 8 8 8 8 7
2 2 2 3 3 3 3 3 3 3 3 3 4 4 4 4 4 4 5 5 5 5 5 6 6 6 6 6 6 6 7 7 7 7 7 7 7 8 7 7 7 7 7
2 2 2 2 2 2 2 2 2 3 3 3 3 3 3 3 3 3 3 3 4 4 4 4 5 5 5 5 5 6 6 6 6 6 6 6 6 6 7 7 6 6 6
1 1 1 1 1 1 1 1 2 2 2 2 2 2 2 2 2 2 2 2 3 3 3 3 4 4 4 5 5 5 5 5 5 5 5 6 6 6 6 6 6 5 5
1 1 1 1 1 1 1 1 1 1 1 1 1 1 1 1 1 1 1 1 2 2 2 2 3 3 3 4 4 4 4 4 5 5 5 5 5 6 6 5 5 5 5
0 0 0 0 0 0 0 -0 -0 -0 -0 -0 -0 -0 0 0 1 0 0 0 1 1 1 1 1 2 2 2 2 3 3 4 4 4 5 5 5 5 6 6 6 5 4
-0 -0 -1 -1 -1 -1 -1 -1 -1 -1 -1 -1 -1 -1 -1 -1 -0 -0 -1 -0 -0 0 0 0 0 1 1 1 1 2 2 3 3 4 4 4 4 5 5 5 4 4 3
-1 -1 -1 -1 -1 -1 -2 -2 -2 -2 -2 -2 -2 -2 -2 -2 -1 -1 -2 -2 -2 -1 -1 -0 -0 -0 0 0 1 1 1 2 2 2 3 3 4 4 4 4 4 4 3
-1 -1 -2 -2 -2 -2 -2 -2 -2 -3 -3 -3 -3 -2 -2 -2 -2 -2 -2 -3 -3 -2 -2 -1 -1 -1 -1 -1 -0 0 0 1 1 1 2 2 3 3 3 3 3 3 3
-2 -2 -2 -2 -2 -2 -3 -3 -3 -3 -3 -3 -3 -3 -3 -3 -3 -3 -3 -3 -3 -3 -3 -3 -2 -2 -1 -1 -1 -1 -0 -0 0 0 1 1 2 2 2 2 2 2 2
-2 -2 -2 -2 -3 -3 -3 -3 -4 -4 -4 -4 -5 -5 -4 -4 -4 -4 -4 -4 -4 -4 -4 -3 -3 -3 -2 -2 -2 -1 -1 -1 -1 -1 -0 0 1 1 1 1 1 1 1
-2 -3 -3 -3 -3 -3 -4 -4 -4 -4 -5 -5 -5 -5 -5 -5 -5 -5 -5 -5 -5 -5 -4 -4 -4 -3 -3 -3 -3 -2 -2 -2 -2 -1 -1 -0 -0 0 0 1 1 1 1
-3 -3 -3 -3 -4 -4 -4 -4 -4 -5 -5 -6 -6 -6 -6 -6 -6 -6 -6 -6 -6 -5 -5 -5 -4 -4 -4 -4 -3 -3 -3 -3 -2 -2 -2 -1 -1 -1 -0 -0 0 0 -0
-3 -4 -4 -4 -4 -5 -5 -4 -4 -5 -5 -5 -6 -6 -6 -6 -6 -6 -6 -6 -6 -6 -6 -6 -5 -5 -5 -5 -4 -4 -4 -3 -3 -3 -2 -2 -2 -1 -1 -1 -1 -1 -1
-4 -4 -4 -5 -5 -5 -5 -6 -5 -5 -5 -5 -5 -6 -6 -6 -6 -6 -6 -6 -6 -6 -6 -6 -6 -6 -6 -5 -5 -5 -4 -4 -4 -4 -3 -3 -2 -2 -2 -2 -2 -2 -1
-4 -5 -5 -5 -6 -6 -6 -7 -7 -7 -6 -6 -6 -6 -7 -7 -7 -7 -7 -7 -7 -7 -7 -7 -7 -7 -6 -6 -6 -5 -5 -5 -4 -4 -4 -3 -3 -3 -3 -2 -2 -2 -2
-5 -5 -6 -6 -6 -7 -7 -7 -7 -7 -7 -7 -7 -7 -7 -7 -7 -7 -7 -7 -8 -8 -7 -7 -7 -7 -7 -6 -6 -6 -5 -5 -5 -5 -4 -4 -4 -3 -3 -3 -3 -3 -3
-5 -6 -6 -6 -7 -7 -7 -7 -8 -8 -8 -8 -8 -8 -8 -8 -8 -8 -8 -8 -8 -8 -8 -8 -8 -7 -7 -7 -6 -6 -6 -6 -5 -5 -5 -4 -4 -4 -4 -3 -3 -3 -3
-6 -6 -6 -7 -7 -7 -8 -8 -8 -8 -8 -8 -8 -8 -8 -9 -8 -8 -8 -8 -8 -8 -8 -8 -8 -8 -7 -7 -7 -7 -6 -6 -6 -5 -5 -5 -4 -4 -4 -4 -4 -4 -4
-6 -7 -7 -7 -7 -8 -8 -8 -8 -8 -8 -9 -8 -8 -8 -8 -9 -9 -9 -9 -8 -8 -8 -8 -8 -8 -8 -7 -7 -7 -7 -6 -6 -6 -5 -5 -5 -4 -4 -4 -4 -4 -4
-7 -7 -7 -7 -8 -8 -8 -8 -8 -9 -9 -9 -9 -9 -9 -9 -9 -9 -9 -8 -8 -8 -8 -8 -8 -8 -8 -7 -7 -7 -7 -6 -6 -6 -5 -5 -5 -5 -5 -4 -4 -4 -4
-7 -7 -7 -8 -8 -8 -8 -8 -9 -9 -9 -9 -9 -9 -9 -9 -9 -9 -9 -8 -8 -8 -8 -8 -8 -8 -8 -7 -7 -7 -7 -6 -6 -6 -6 -5 -5 -5 -5 -5 -5 -5 -5
-7 -7 -8 -8 -8 -8 -9 -9 -9 -9 -9 -9 -9 -9 -9 -9 -9 -9 -9 -9 -8 -8 -8 -8 -8 -8 -7 -7 -7 -7 -7 -6 -6 -6 -6 -6 -5 -5 -5 -5 -5 -5 -5
-7 -8 -8 -8 -8 -9 -9 -9 -9 -9 -10 -10 -10 -9 -9 -9 -9 -9 -9 -9 -9 -8 -8 -8 -8 -8 -7 -7 -7 -7 -7 -6 -6 -6 -6 -6 -6 -5 -5 -5 -5 -5 -5
Wind_Speed
10 10 10 9 8 7 6 7 7 7 7 6 5 5 5 5 5 5 6 6 8 8 9 10 12 11 9 9 9 9 11 11 12 8 6 7 11 11 10 13 13 14 15
9 9 9 9 8 8 8 8 8 7 7 7 6 6 6 6 6 6 7 7 8 9 9 9 11 9 11 9 9 11 10 10 10 9 6 6 9 12 12 12 10 12 12
9 9 9 9 9 9 8 8 8 7 8 8 7 7 7 7 6 6 7 8 8 9 10 10 10 10 11 9 9 10 9 8 8 8 6 5 5 8 9 8 10 9 9
9 9 10 10 9 9 9 8 8 8 8 8 8 8 8 7 7 7 7 7 8 8 9 10 10 10 10 10 9 10 9 9 9 8 6 5 5 6 8 8 8 8 8
8 8 8 9 8 8 9 9 9 9 9 8 8 8 8 7 8 9 9 8 8 8 8 9 9 9 10 10 9 9 9 9 8 8 7 6 6 7 10 9 10 8 8
7 8 8 8 8 8 9 9 9 9 9 9 9 9 9 8 11 13 11 9 9 9 9 9 9 9 10 12 13 12 12 12 11 11 10 10 11 10 10 9 9 7 7
7 7 8 8 8 9 9 9 9 9 10 10 10 10 10 11 14 14 14 11 10 9 9 9 8 8 10 10 12 13 14 15 15 13 13 13 12 12 12 12 12 11 8
7 7 8 8 9 9 9 9 9 9 9 9 10 10 10 11 15 15 15 11 10 10 9 9 10 10 9 9 10 11 12 13 13 13 13 13 12 12 14 13 12 7 2
7 8 8 8 9 9 9 10 9 9 9 9 10 11 11 12 14 16 15 10 9 10 10 10 10 10 12 11 10 10 11 10 10 12 13 12 12 13 12 9 9 9 5
7 8 8 8 8 9 9 10 9 9 9 9 10 10 11 11 14 16 15 9 10 10 10 10 11 11 13 13 10 10 11 9 8 7 8 8 9 12 16 14 12 11 6
7 7 8 8 8 8 9 8 9 9 9 9 10 10 10 11 13 15 16 10 10 11 10 10 9 13 14 15 13 11 11 10 8 7 7 6 6 7 9 9 9 10 8
7 7 8 8 7 7 8 9 9 9 10 10 10 10 9 10 11 13 16 15 14 11 11 10 11 16 16 16 12 12 12 9 6 6 6 6 6 6 5 5 5 4 3
7 8 8 8 8 8 8 9 9 8 8 9 9 10 10 10 11 15 16 16 16 12 11 15 16 18 16 13 11 12 10 7 6 6 7 6 5 5 4 4 4 5 6
7 8 8 8 8 8 7 7 7 8 8 9 9 10 11 10 10 10 11 12 14 12 11 13 16 15 12 11 11 8 6 6 6 7 6 4 3 4 5 5 5 6 5
7 7 7 7 8 8 8 7 8 8 9 11 10 10 11 12 13 18 15 13 12 13 13 11 9 9 8 7 7 6 6 5 6 5 5 4 4 5 5 5 5 6 5
6 6 6 6 7 7 8 9 10 11 14 15 14 14 12 15 20 20 20 20 19 18 13 9 9 8 8 8 7 6 6 6 5 5 5 5 5 5 5 5 6 6 7
6 7 6 7 7 8 8 9 10 11 13 14 14 16 16 18 19 19 19 19 18 16 10 8 8 8 8 7 7 6 6 5 5 4 4 4 4 5 6 6 7 7 7
6 7 7 7 7 8 8 9 9 10 12 11 12 15 17 18 18 18 18 15 11 9 8 8 9 9 8 8 7 6 5 5 4 4 4 4 4 5 6 7 7 7 7
6 6 6 7 8 8 8 9 9 10 10 11 11 12 15 16 16 15 13 9 9 9 8 9 9 9 8 8 7 6 6 5 5 4 4 4 4 5 6 6 7 9 8
5 7 8 8 8 8 8 8 9 9 10 10 10 11 12 12 10 10 9 9 9 9 9 9 9 9 8 7 7 6 6 5 5 4 4 4 4 5 6 7 7 8 8
5 7 9 8 7 7 8 9 9 9 10 10 10 12 16 11 10 11 10 9 9 9 9 9 9 9 8 7 7 6 7 6 5 4 4 4 4 4 5 6 7 7 7
5 6 6 7 7 7 8 8 9 9 10 11 11 12 15 11 9 10 10 10 10 9 9 9 9 8 7 7 7 7 6 6 5 5 4 4 4 5 5 6 6 7 8
5 6 6 7 7 9 9 8 8 9 10 10 11 11 10 10 10 10 10 10 10 9 9 9 9 8 8 7 7 6 6 6 6 5 5 4 4 4 5 6 8 8 9
5 6 6 7 7 7 8 8 8 9 10 10 10 10 10 10 11 11 11 10 10 10 9 8 8 10 11 9 7 6 6 6 6 5 6 5 5 4 5 6 7 9 9
4 5 6 6 6 7 7 8 8 9 9 9 10 10 10 11 11 11 11 10 11 10 11 10 8 9 10 11 9 7 8 9 7 5 4 4 5 5 5 6 7 8 8
4 5 5 5 6 6 7 8 8 9 9 9 10 10 10 10 10 11 10 10 10 10 10 9 9 10 11 9 9 9 9 9 7 7 4 3 4 4 5 5 7 8 10
Wind_Direction
14 12 12 10 7 4 359 356 353 347 342 334 319 307 300 295 291 282 272 267 261 258 251 246 244 242 240 236 234 234 234 232 242 239 220 203 198 204 200 204 203 201 204
9 9 10 9 9 8 3 357 352 347 344 341 337 327 315 305 297 287 282 276 268 263 261 257 252 247 245 241 236 234 235 233 236 239 226 205 207 205 202 202 201 203 204
8 9 10 10 8 4 360 357 354 348 344 342 341 336 331 321 309 300 292 282 274 272 266 258 257 251 247 246 245 242 237 235 234 235 231 217 213 202 201 201 202 203 203
6 7 7 4 1 358 357 355 354 351 349 346 342 337 333 330 326 320 309 295 285 279 276 267 259 254 253 251 245 244 242 236 231 230 229 217 208 197 196 198 204 205 203
0 2 360 356 355 354 355 354 352 352 350 344 341 338 336 334 335 331 323 312 302 293 287 281 271 263 262 257 252 248 243 240 236 231 227 219 210 196 204 201 209 204 204
356 355 354 352 353 354 353 350 349 348 347 345 342 337 334 332 334 333 325 313 308 299 293 290 284 267 262 259 254 248 243 239 235 232 230 225 220 215 210 204 201 196 209
351 351 351 349 349 348 346 345 345 343 342 340 337 335 331 330 333 332 328 318 309 304 299 296 294 287 277 268 260 251 245 242 237 234 233 230 224 215 206 206 204 203 210
345 345 345 343 342 340 340 340 338 335 334 332 329 329 327 329 334 331 327 315 306 302 299 295 293 294 289 283 276 265 258 249 242 240 241 237 229 216 205 207 207 195 145
342 340 339 338 337 337 338 336 333 331 329 327 325 326 325 325 329 330 326 312 306 303 300 296 294 292 295 292 279 271 270 268 261 256 255 249 234 216 201 191 184 184 193
334 331 331 332 332 332 330 328 327 325 321 320 318 319 320 321 326 329 329 318 313 310 304 298 293 296 299 295 284 272 266 270 273 275 263 250 235 214 199 197 192 192 185
326 325 327 328 326 323 322 322 323 322 320 320 318 318 319 319 323 328 328 322 316 311 307 303 300 304 302 299 291 278 272 277 271 263 258 248 234 218 207 204 199 192 186
323 322 323 324 323 320 320 321 322 321 320 321 321 321 321 321 322 325 326 322 317 308 304 302 301 301 300 296 289 282 280 278 267 259 253 242 229 219 207 194 184 177 167
321 321 320 321 321 322 321 321 321 321 320 320 319 318 319 321 321 321 321 318 314 307 300 299 299 299 299 295 284 281 277 266 257 254 249 243 233 207 175 152 129 111 91
315 317 318 319 319 320 318 317 318 318 318 317 316 316 315 315 317 321 320 316 313 307 303 302 301 299 294 287 285 281 273 263 257 255 253 244 217 191 183 171 165 151 132
312 315 317 316 316 317 316 314 312 308 309 310 309 310 311 311 314 319 317 314 312 307 308 303 300 300 298 293 288 282 276 270 264 257 246 231 212 197 187 173 165 161 162
312 315 315 314 314 315 316 313 305 303 307 307 306 307 305 305 311 315 316 313 311 310 307 299 299 298 296 291 286 283 278 271 266 253 239 227 211 196 183 172 170 171 168
308 310 310 311 313 314 314 314 315 314 310 309 311 313 312 313 315 316 316 314 312 312 305 299 298 297 295 291 285 280 278 275 267 253 239 225 207 193 182 178 176 172 167
306 305 307 308 310 309 309 310 309 312 315 316 317 316 317 317 317 317 317 316 312 313 305 300 299 298 296 293 288 284 280 277 268 256 245 225 203 194 188 185 182 176 167
305 307 309 308 306 306 307 307 306 307 308 311 314 318 322 321 317 316 320 315 310 308 305 301 298 297 295 295 290 283 276 269 263 257 245 225 206 196 191 187 182 176 168
302 307 312 309 307 307 308 307 307 309 309 310 312 317 323 322 320 321 320 314 308 304 303 300 299 297 295 294 292 284 276 269 259 250 246 230 208 199 193 185 181 179 177
304 308 311 308 306 307 307 307 308 309 309 310 310 313 319 318 314 314 313 312 309 305 302 299 297 296 294 292 289 283 277 270 260 250 243 233 211 200 192 185 182 177 169
303 306 309 308 307 306 307 307 308 307 309 310 312 315 318 316 311 310 309 308 307 304 301 299 296 294 291 288 283 279 273 269 262 249 241 235 216 199 187 180 176 172 167
297 302 306 307 306 308 309 308 309 309 310 312 313 314 316 315 312 310 309 308 307 304 302 299 296 295 294 290 280 273 268 264 260 251 238 231 219 200 187 181 177 173 171
294 300 304 306 308 309 309 310 311 312 312 313 314 314 314 314 312 311 310 308 307 305 303 301 297 296 298 297 288 279 271 267 261 251 240 227 219 200 186 180 179 177 174
292 298 301 304 306 307 308 309 311 313 314 315 315 314 313 313 312 312 311 310 310 309 307 304 299 299 299 298 293 286 281 274 265 252 238 223 209 197 185 179 176 172 171
290 295 297 299 300 302 305 308 310 313 313 313 312 311 311 312 312 312 312 312 313 311 309 308 307 307 304 301 296 290 288 283 266 250 235 215 201 190 180 175 170 171 169
Height
1455 1453 1451 1450 1448 1447 1446 1445 1444 1443 1442 1441 1440 1440 1439 1438 1438 1438 1438 1438 1438 1439 1440 1440 1441 1443 1444 1445 1446 1447 1449 1450 1450 1452 1454 1456 1458 1460 1463 1466 1468 1470 1472
1456 1454 1452 1450 1448 1446 1444 1443 1441 1440 1439 1438 1437 1436 1435 1434 1433 1433 1432 1432 1432 1432 1432 1432 1433 1434 1435 1436 1437 1438 1440 1441 1442 1443 1444 1446 1448 1451 1454 1457 1459 1462 1464
1457 1454 1451 1449 1447 1445 1443 1441 1439 1438 1436 1435 1433 1432 1430 1429 1428 1427 1427 1426 1426 1425 1425 1425 1425 1426 1426 1427 1428 1429 1430 1432 1433 1435 1435 1437 1439 1442 1445 1448 1451 1453 1455
1457 1454 1451 1448 1446 1443 1441 1439 1438 1436 1434 1432 1430 1428 1427 1425 1423 1422 1421 1420 1419 1419 1418 1417 1417 1417 1418 1419 1419 1421 1422 1423 1425 1426 1427 1428 1430 1432 1435 1437 1440 1444 1446
1457 1454 1451 1448 1445 1443 1440 1438 1435 1433 1431 1429 1427 1425 1423 1421 1419 1417 1416 1415 1413 1412 1411 1410 1410 1409 1409 1411 1411 1412 1414 1415 1417 1417 1418 1419 1421 1423 1425 1428 1431 1434 1436
1456 1453 1450 1448 1445 1442 1439 1436 1434 1431 1429 1426 1424 1422 1420 1417 1415 1413 1412 1410 1408 1406 1405 1404 1403 1402 1402 1402 1403 1404 1406 1407 1407 1409 1409 1410 1411 1414 1417 1419 1421 1424 1426
1456 1453 1450 1447 1444 1441 1438 1435 1432 1429 1427 1424 1421 1418 1416 1414 1411 1409 1407 1405 1402 1401 1399 1397 1396 1395 1394 1394 1394 1395 1396 1397 1399 1400 1399 1400 1403 1405 1408 1410 1411 1413 1415
1455 1452 1448 1445 1442 1439 1436 1433 1430 1427 1424 1421 1418 1415 1412 1409 1407 1404 1402 1399 1397 1395 1393 1391 1389 1388 1387 1387 1386 1386 1386 1387 1389 1390 1391 1392 1394 1396 1398 1401 1402 1405 1408
1453 1450 1447 1444 1441 1437 1434 1431 1428 1425 1421 1418 1415 1412 1408 1405 1402 1399 1397 1394 1391 1389 1387 1386 1384 1382 1381 1380 1380 1379 1378 1378 1379 1380 1381 1383 1384 1386 1389 1392 1394 1396 1398
1452 1448 1445 1442 1439 1436 1432 1429 1426 1422 1419 1415 1412 1408 1405 1402 1398 1395 1392 1389 1386 1383 1381 1380 1378 1376 1375 1374 1373 1372 1371 1371 1371 1372 1372 1374 1375 1377 1379 1382 1384 1387 1389
1450 1447 1443 1440 1437 1433 1430 1426 1423 1419 1415 1412 1408 1405 1401 1398 1395 1392 1389 1386 1382 1379 1376 1374 1372 1370 1369 1368 1367 1366 1365 1364 1364 1364 1364 1365 1367 1368 1370 1373 1376 1379 1381
1447 1444 1441 1438 1434 1431 1427 1423 1420 1416 1412 1408 1405 1401 1398 1395 1391 1388 1385 1382 1379 1375 1371 1369 1366 1364 1363 1362 1360 1359 1358 1358 1358 1357 1358 1358 1359 1361 1363 1366 1369 1372 1375
1445 1442 1439 1435 1432 1428 1424 1420 1417 1413 1409 1405 1401 1397 1394 1391 1387 1384 1381 1377 1374 1370 1367 1364 1361 1359 1356 1355 1353 1353 1352 1352 1351 1351 1351 1351 1353 1354 1357 1359 1362 1365 1369
1442 1439 1436 1432 1429 1425 1422 1418 1414 1410 1406 1402 1399 1395 1390 1387 1384 1380 1376 1373 1369 1365 1362 1358 1355 1353 1350 1349 1347 1346 1345 1345 1345 1345 1345 1346 1347 1349 1350 1352 1355 1359 1362
1438 1436 1432 1429 1425 1422 1418 1415 1411 1408 1404 1400 1396 1393 1388 1384 1380 1377 1374 1369 1365 1362 1358 1354 1350 1348 1345 1343 1342 1340 1340 1340 1340 1339 1339 1340 1341 1343 1345 1347 1350 1353 1356
1435 1432 1429 1425 1422 1419 1415 1411 1408 1405 1401 1397 1393 1389 1384 1381 1376 1373 1369 1365 1361 1357 1354 1350 1346 1343 1341 1339 1337 1335 1335 1334 1334 1334 1334 1334 1335 1337 1339 1342 1345 1348 1351
1432 1429 1425 1422 1419 1415 1411 1407 1403 1399 1396 1392 1388 1384 1380 1376 1372 1368 1364 1360 1356 1353 1349 1346 1342 1340 1337 1335 1333 1331 1330 1329 1329 1329 1329 1330 1330 1332 1335 1337 1340 1343 1347
1428 1425 1422 1419 1415 1412 1408 1404 1400 1395 1391 1386 1383 1380 1375 1371 1367 1363 1359 1355 1351 1348 1345 1342 1339 1336 1333 1331 1329 1327 1326 1325 1325 1325 1325 1325 1326 1328 1330 1333 1336 1339 1343
1425 1422 1418 1415 1412 1408 1404 1400 1396 1392 1388 1383 1379 1375 1371 1367 1363 1359 1356 1352 1348 1344 1341 1338 1335 1332 1330 1327 1325 1324 1322 1321 1321 1321 1321 1322 1323 1325 1327 1329 1332 1336 1339
1421 1418 1415 1411 1408 1404 1401 1397 1393 1389 1385 1380 1376 1372 1367 1363 1359 1355 1352 1348 1345 1341 1337 1334 1331 1328 1326 1324 1322 1320 1319 1318 1317 1317 1317 1318 1319 1321 1323 1326 1328 1332 1335
1417 1414 1411 1408 1404 1401 1397 1393 1390 1386 1382 1377 1373 1369 1365 1361 1357 1352 1349 1345 1341 1337 1334 1330 1327 1324 1322 1320 1318 1316 1315 1314 1314 1314 1314 1315 1316 1318 1320 1323 1325 1328 1332
1413 1411 1407 1404 1401 1397 1394 1390 1386 1382 1378 1374 1370 1366 1362 1358 1354 1349 1345 1341 1338 1334 1330 1327 1323 1321 1318 1316 1314 1313 1312 1311 1311 1311 1311 1312 1314 1316 1318 1320 1322 1325 1329
1410 1407 1404 1401 1397 1394 1390 1386 1383 1379 1375 1371 1367 1362 1358 1354 1350 1346 1342 1338 1334 1330 1326 1323 1320 1317 1314 1312 1310 1309 1308 1307 1307 1308 1309 1310 1311 1313 1315 1317 1320 1323 1326
1406 1403 1400 1397 1394 1390 1387 1383 1379 1375 1371 1367 1363 1359 1355 1351 1347 1342 1338 1334 1330 1326 1323 1319 1316 1313 1311 1309 1307 1305 1304 1304 1304 1305 1306 1307 1309 1310 1312 1315 1317 1320 1323
1402 1399 1396 1393 1390 1387 1383 1379 1376 1372 1368 1364 1360 1356 1352 1348 1343 1339 1335 1331 1327 1323 1320 1316 1313 1310 1308 1306 1304 1303 1302 1302 1302 1303 1303 1305 1306 1308 1310 1312 1315 1318 1321
1398 1395 1393 1390 1387 1383 1380 1376 1373 1369 1365 1361 1357 1353 1349 1345 1340 1336 1332 1329 1325 1321 1317 1314 1311 1308 1305 1303 1302 1300 1300 1300 1300 1301 1302 1303 1304 1306 1308 1311 1313 1316 1319